Satellite-Ground Cal/Val Region Overpasses Predictions

Prediction of Satellite NPP Overpassing Cal/Val Region: PacNW

Region Location: (Latitude: 10.00, Longitude: 139.50) to (Latitude: 22.70, Longitude: 165.60).

Table of predicted overpasses for the next 14.0 days since TLE Epoch: 1/3/2016
Interval Starting Time Starting Location Ending Time Ending Location
1 01/03/2016 15:19:42 ( 22.67, 155.47) 01/03/2016 15:23:17 ( 10.05, 152.47)
2 01/04/2016 02:28:47 ( 10.05, 163.00) 01/04/2016 02:32:22 ( 22.67, 160.01)
3 01/04/2016 15:00:40 ( 22.66, 160.23) 01/04/2016 15:04:15 ( 10.04, 157.23)
4 01/05/2016 02:12:22 ( 19.28, 165.60) 01/05/2016 02:13:20 ( 22.68, 164.76)
5 01/05/2016 03:51:14 ( 10.01, 142.40) 01/05/2016 03:54:42 ( 22.22, 139.50)
6 01/05/2016 14:41:37 ( 22.65, 164.98) 01/05/2016 14:45:12 ( 10.03, 161.98)
7 01/05/2016 16:23:07 ( 22.64, 139.60) 01/05/2016 16:23:14 ( 22.23, 139.50)
8 01/06/2016 03:32:11 ( 10.02, 147.15) 01/06/2016 03:35:46 ( 22.64, 144.16)
9 01/06/2016 16:04:04 ( 22.69, 144.37) 01/06/2016 16:07:40 ( 10.01, 141.36)
10 01/07/2016 03:13:09 ( 10.03, 151.91) 01/07/2016 03:16:44 ( 22.65, 148.91)
11 01/07/2016 15:45:01 ( 22.68, 149.13) 01/07/2016 15:48:36 ( 10.06, 146.13)
12 01/08/2016 02:54:06 ( 10.04, 156.66) 01/08/2016 02:57:41 ( 22.67, 153.67)
13 01/08/2016 15:25:59 ( 22.67, 153.89) 01/08/2016 15:29:34 ( 10.04, 150.89)
14 01/09/2016 02:35:04 ( 10.06, 161.42) 01/09/2016 02:38:39 ( 22.68, 158.42)
15 01/09/2016 15:06:57 ( 22.65, 158.64) 01/09/2016 15:10:32 ( 10.03, 155.64)
16 01/10/2016 02:16:44 ( 12.60, 165.60) 01/10/2016 02:19:36 ( 22.69, 163.18)
17 01/10/2016 03:57:30 ( 10.02, 140.81) 01/10/2016 03:59:06 ( 15.66, 139.51)
18 01/10/2016 14:47:53 ( 22.70, 163.41) 01/10/2016 14:51:29 ( 10.02, 160.40)
19 01/11/2016 03:38:28 ( 10.03, 145.57) 01/11/2016 03:42:03 ( 22.65, 142.57)
20 01/11/2016 14:31:54 ( 11.94, 165.60) 01/11/2016 14:32:27 ( 10.00, 165.16)
21 01/11/2016 16:10:21 ( 22.68, 142.79) 01/11/2016 16:13:56 ( 10.05, 139.79)
22 01/12/2016 03:19:25 ( 10.05, 150.32) 01/12/2016 03:23:00 ( 22.67, 147.33)
23 01/12/2016 15:51:18 ( 22.66, 147.54) 01/12/2016 15:54:53 ( 10.04, 144.55)
24 01/13/2016 03:00:22 ( 10.00, 155.09) 01/13/2016 03:03:58 ( 22.68, 152.08)
25 01/13/2016 15:32:16 ( 22.65, 152.30) 01/13/2016 15:35:51 ( 10.03, 149.30)
26 01/14/2016 02:41:19 ( 10.02, 159.85) 01/14/2016 02:44:55 ( 22.70, 156.84)
27 01/14/2016 15:13:12 ( 22.69, 157.07) 01/14/2016 15:16:48 ( 10.01, 154.06)
28 01/15/2016 02:22:17 ( 10.03, 164.60) 01/15/2016 02:25:52 ( 22.65, 161.61)
29 01/15/2016 14:54:10 ( 22.68, 161.82) 01/15/2016 14:57:45 ( 10.06, 158.83)
30 01/16/2016 03:44:44 ( 10.05, 143.98) 01/16/2016 03:48:19 ( 22.68, 140.98)
31 01/16/2016 14:36:16 ( 18.62, 165.59) 01/16/2016 14:38:42 ( 10.04, 163.58)


NCC Satellite Cal/Val Overpasses Prediction Service
